Location: Devore Heights
(34.2372°N, 117.4156°W)
Time: 04:21:53
(UTC+00:00)

S-56A Canister/Altair - Pass Details

Date: 21 September 2024
Orbit: 636 x 2487 km, 38.9° (Epoch: 05 October)

Event Time Altitude Azimuth Distance (km) Brightness Sun altitude
Rises 21:52:01 0° 200° (SSW) 3,089 11.3 44.5°
Reaches altitude 10° 21:55:26 10° 176° (S) 2,048 10.3 43.9°
Maximum altitude 21:57:56 15° 142° (SE) 1,725 9.5 43.5°
Drops below altitude 10° 22:00:25 10° 108° (ESE) 2,021 9.6 43.1°
Sets 22:03:44 0° 83° (E) 3,020 10.2 42.6°
